Time,TemperatureF,DewpointF,PressureIn,WindDirection,WindDirectionDegrees,WindSpeedMPH,WindSpeedGustMPH,Humidity,HourlyPrecipIn,Conditions,Clouds,dailyrainin,SoftwareType,DateUTC
2013-02-07 00:03:00,29.9,14.0,30.13,ENE,67,2.0,2.0,52,0.00,,,0.00,weatherlink.com 1.10,2013-02-07 08:03:00,
2013-02-07 00:18:00,30.7,15.0,30.13,ENE,70,0.0,3.0,52,0.00,,,0.00,weatherlink.com 1.10,2013-02-07 08:18:00,
2013-02-07 00:33:00,30.2,12.0,30.13,ENE,67,0.0,2.0,47,0.00,,,0.00,weatherlink.com 1.10,2013-02-07 08:33:00,
2013-02-07 00:48:00,31.1,13.0,30.13,ENE,77,0.0,2.0,47,0.00,,,0.00,weatherlink.com 1.10,2013-02-07 08:48:00,
2013-02-07 01:03:00,30.0,11.0,30.13,ENE,58,2.0,2.0,45,0.00,,,0.00,weatherlink.com 1.10,2013-02-07 09:03:00,
2013-02-07 01:18:00,30.5,9.0,30.13,ENE,73,0.0,3.0,41,0.00,,,0.00,weatherlink.com 1.10,2013-02-07 09:18:00,
2013-02-07 01:33:00,30.7,11.0,30.12,ENE,75,2.0,3.0,44,0.00,,,0.00,weatherlink.com 1.10,2013-02-07 09:33:00,
2013-02-07 01:48:00,27.1,14.0,30.12,ENE,59,2.0,2.0,58,0.00,,,0.00,weatherlink.com 1.10,2013-02-07 09:48:00,
2013-02-07 02:03:00,27.7,16.0,30.12,East,84,3.0,3.0,62,0.00,,,0.00,weatherlink.com 1.10,2013-02-07 10:03:00,
2013-02-07 02:18:00,27.0,16.0,30.12,ENE,65,2.0,3.0,63,0.00,,,0.00,weatherlink.com 1.10,2013-02-07 10:18:00,
2013-02-07 02:33:00,28.5,13.0,30.12,NNE,13,1.0,2.0,53,0.00,,,0.00,weatherlink.com 1.10,2013-02-07 10:33:00,
2013-02-07 02:48:00,32.1,10.0,30.12,East,80,1.0,2.0,40,0.00,,,0.00,weatherlink.com 1.10,2013-02-07 10:48:00,
2013-02-07 03:03:00,29.2,11.0,30.12,East,80,1.0,2.0,47,0.00,,,0.00,weatherlink.com 1.10,2013-02-07 11:03:00,
2013-02-07 03:18:00,31.0,13.0,30.12,NNE,16,1.0,1.0,48,0.00,,,0.00,weatherlink.com 1.10,2013-02-07 11:18:00,
2013-02-07 03:33:00,29.6,9.0,30.12,NNE,16,0.0,1.0,43,0.00,,,0.00,weatherlink.com 1.10,2013-02-07 11:33:00,
2013-02-07 03:49:00,31.4,11.0,30.11,ENE,72,1.0,2.0,42,0.00,,,0.00,weatherlink.com 1.10,2013-02-07 11:49:00,
2013-02-07 04:04:00,30.7,10.0,30.11,North,351,0.0,1.0,43,0.00,,,0.00,weatherlink.com 1.10,2013-02-07 12:04:00,
2013-02-07 04:19:00,30.7,10.0,30.11,NW,306,0.0,2.0,43,0.00,,,0.00,weatherlink.com 1.10,2013-02-07 12:19:00,
2013-02-07 04:34:00,31.7,10.0,30.11,NE,37,0.0,3.0,41,0.00,,,0.00,weatherlink.com 1.10,2013-02-07 12:34:00,
2013-02-07 04:49:00,32.2,9.0,30.12,NNW,340,0.0,1.0,38,0.00,,,0.00,weatherlink.com 1.10,2013-02-07 12:49:00,
2013-02-07 05:04:00,32.3,11.0,30.12,NNW,340,0.0,1.0,41,0.00,,,0.00,weatherlink.com 1.10,2013-02-07 13:04:00,
2013-02-07 05:19:00,32.9,10.0,30.12,SSE,152,0.0,3.0,38,0.00,,,0.00,weatherlink.com 1.10,2013-02-07 13:19:00,
2013-02-07 05:34:00,33.0,12.0,30.13,SSE,152,1.0,1.0,42,0.00,,,0.00,weatherlink.com 1.10,2013-02-07 13:34:00,
2013-02-07 05:49:00,32.9,11.0,30.13,SSE,152,1.0,1.0,41,0.00,,,0.00,weatherlink.com 1.10,2013-02-07 13:49:00,
2013-02-07 06:04:00,32.7,12.0,30.13,SSE,152,0.0,1.0,42,0.00,,,0.00,weatherlink.com 1.10,2013-02-07 14:04:00,
2013-02-07 06:19:00,33.8,16.0,30.13,WNW,300,0.0,1.0,49,0.00,,,0.00,weatherlink.com 1.10,2013-02-07 14:19:00,
2013-02-07 06:34:00,34.6,17.0,30.13,West,280,1.0,1.0,49,0.00,,,0.00,weatherlink.com 1.10,2013-02-07 14:34:00,
2013-02-07 06:49:00,36.4,21.0,30.13,WNW,288,0.0,4.0,55,0.00,,,0.00,weatherlink.com 1.10,2013-02-07 14:49:00,
2013-02-07 07:04:00,36.2,22.0,30.14,SSE,158,0.0,1.0,57,0.00,,,0.00,weatherlink.com 1.10,2013-02-07 15:04:00,
2013-02-07 07:19:00,37.3,24.0,30.14,SSE,160,0.0,3.0,60,0.00,,,0.00,weatherlink.com 1.10,2013-02-07 15:19:00,
2013-02-07 07:34:00,38.4,25.0,30.14,SSE,158,2.0,3.0,60,0.00,,,0.00,weatherlink.com 1.10,2013-02-07 15:34:00,
2013-02-07 07:49:00,38.4,25.0,30.15,SSE,153,0.0,4.0,60,0.00,,,0.00,weatherlink.com 1.10,2013-02-07 15:49:00,
2013-02-07 08:04:00,40.4,27.0,30.14,East,97,3.0,4.0,60,0.00,,,0.00,weatherlink.com 1.10,2013-02-07 16:04:00,
2013-02-07 08:19:00,43.2,30.0,30.14,SE,131,4.0,6.0,59,0.00,,,0.00,weatherlink.com 1.10,2013-02-07 16:19:00,
2013-02-07 08:34:00,45.4,32.0,30.14,ESE,119,3.0,11.0,60,0.00,,,0.00,weatherlink.com 1.10,2013-02-07 16:34:00,
2013-02-07 08:49:00,47.0,34.0,30.14,SE,139,4.0,10.0,60,0.00,,,0.00,weatherlink.com 1.10,2013-02-07 16:49:00,
2013-02-07 09:04:00,48.4,35.0,30.14,East,86,4.0,13.0,61,0.00,,,0.00,weatherlink.com 1.10,2013-02-07 17:04:00,
2013-02-07 09:19:00,49.3,34.0,30.13,South,190,6.0,13.0,57,0.00,,,0.00,weatherlink.com 1.10,2013-02-07 17:19:00,
2013-02-07 09:34:00,50.2,34.0,30.13,West,265,9.0,13.0,55,0.00,,,0.00,weatherlink.com 1.10,2013-02-07 17:34:00,
2013-02-07 09:49:00,51.1,34.0,30.13,SSW,198,8.0,14.0,53,0.00,,,0.00,weatherlink.com 1.10,2013-02-07 17:49:00,
2013-02-07 10:05:00,51.4,34.0,30.12,South,173,11.0,19.0,51,0.00,,,0.00,weatherlink.com 1.10,2013-02-07 18:05:00,
2013-02-07 10:20:00,52.0,34.0,30.11,SSW,201,7.0,17.0,51,0.00,,,0.00,weatherlink.com 1.10,2013-02-07 18:20:00,
2013-02-07 10:35:00,52.4,34.0,30.11,South,188,14.0,22.0,50,0.00,,,0.00,weatherlink.com 1.10,2013-02-07 18:35:00,
2013-02-07 10:50:00,53.1,34.0,30.11,SW,218,9.0,17.0,48,0.00,,,0.00,weatherlink.com 1.10,2013-02-07 18:50:00,
2013-02-07 11:05:00,53.6,34.0,30.10,West,260,5.0,17.0,47,0.00,,,0.00,weatherlink.com 1.10,2013-02-07 19:05:00,
2013-02-07 11:20:00,54.1,32.0,30.10,SSW,204,7.0,19.0,43,0.00,,,0.00,weatherlink.com 1.10,2013-02-07 19:20:00,
2013-02-07 11:35:00,54.2,32.0,30.10,SSW,194,8.0,19.0,43,0.00,,,0.00,weatherlink.com 1.10,2013-02-07 19:35:00,
2013-02-07 11:50:00,54.2,30.0,30.09,South,186,11.0,21.0,40,0.00,,,0.00,weatherlink.com 1.10,2013-02-07 19:50:00,
2013-02-07 12:05:00,54.4,30.0,30.08,East,82,6.0,17.0,40,0.00,,,0.00,weatherlink.com 1.10,2013-02-07 20:05:00,
2013-02-07 12:20:00,54.2,32.0,30.07,South,169,9.0,17.0,43,0.00,,,0.00,weatherlink.com 1.10,2013-02-07 20:20:00,
2013-02-07 12:35:00,54.2,34.0,30.06,WSW,249,13.0,18.0,47,0.00,,,0.00,weatherlink.com 1.10,2013-02-07 20:35:00,
2013-02-07 12:50:00,54.1,36.0,30.06,SW,233,5.0,21.0,50,0.00,,,0.00,weatherlink.com 1.10,2013-02-07 20:50:00,
2013-02-07 13:05:00,53.9,35.0,30.04,WSW,245,4.0,18.0,50,0.00,,,0.00,weatherlink.com 1.10,2013-02-07 21:05:00,
2013-02-07 13:21:00,54.0,36.0,30.03,West,274,5.0,19.0,51,0.00,,,0.00,weatherlink.com 1.10,2013-02-07 21:21:00,
2013-02-07 13:35:00,53.8,37.0,30.03,South,170,11.0,21.0,53,0.00,,,0.00,weatherlink.com 1.10,2013-02-07 21:35:00,
2013-02-07 13:50:00,53.6,38.0,30.02,South,177,3.0,21.0,55,0.00,,,0.00,weatherlink.com 1.10,2013-02-07 21:50:00,
2013-02-07 14:05:00,53.1,39.0,30.01,WNW,283,5.0,16.0,60,0.00,,,0.00,weatherlink.com 1.10,2013-02-07 22:05:00,
2013-02-07 14:20:00,52.8,39.0,30.00,South,188,16.0,18.0,60,0.00,,,0.00,weatherlink.com 1.10,2013-02-07 22:20:00,
2013-02-07 14:35:00,51.8,39.0,30.00,SSW,204,5.0,20.0,63,0.00,,,0.00,weatherlink.com 1.10,2013-02-07 22:35:00,
2013-02-07 14:50:00,50.6,39.0,30.00,SW,225,5.0,21.0,65,0.00,,,0.00,weatherlink.com 1.10,2013-02-07 22:50:00,
2013-02-07 15:20:00,49.2,38.0,30.01,WNW,283,3.0,19.0,66,0.00,,,0.00,weatherlink.com 1.10,2013-02-07 23:20:00,
2013-02-07 15:35:00,48.4,38.0,30.01,West,276,8.0,14.0,68,0.00,,,0.00,weatherlink.com 1.10,2013-02-07 23:35:00,
2013-02-07 15:50:00,47.7,38.0,30.01,NW,304,4.0,16.0,69,0.00,,,0.00,weatherlink.com 1.10,2013-02-07 23:50:00,
2013-02-07 16:05:00,47.0,38.0,30.01,West,276,3.0,13.0,72,0.00,,,0.00,weatherlink.com 1.10,2013-02-08 00:05:00,
2013-02-07 16:20:00,46.2,38.0,30.01,NW,309,3.0,10.0,72,0.00,,,0.00,weatherlink.com 1.10,2013-02-08 00:20:00,
2013-02-07 16:35:00,45.7,38.0,30.01,West,270,4.0,15.0,74,0.00,,,0.00,weatherlink.com 1.10,2013-02-08 00:35:00,
2013-02-07 16:50:00,45.4,38.0,30.01,SW,214,4.0,7.0,75,0.00,,,0.00,weatherlink.com 1.10,2013-02-08 00:50:00,
2013-02-07 17:05:00,44.9,37.0,30.01,SW,231,1.0,12.0,74,0.00,,,0.00,weatherlink.com 1.10,2013-02-08 01:05:00,
2013-02-07 17:20:00,44.3,37.0,30.01,WNW,297,5.0,10.0,75,0.00,,,0.00,weatherlink.com 1.10,2013-02-08 01:20:00,
2013-02-07 17:35:00,43.8,36.0,30.01,WNW,290,3.0,9.0,75,0.00,,,0.00,weatherlink.com 1.10,2013-02-08 01:35:00,
2013-02-07 17:50:00,43.4,36.0,30.01,West,277,7.0,10.0,75,0.00,,,0.00,weatherlink.com 1.10,2013-02-08 01:50:00,
2013-02-07 18:05:00,43.0,36.0,30.00,West,276,3.0,8.0,77,0.00,,,0.00,weatherlink.com 1.10,2013-02-08 02:05:00,
2013-02-07 18:20:00,42.7,36.0,29.99,SE,128,7.0,11.0,78,0.00,,,0.00,weatherlink.com 1.10,2013-02-08 02:20:00,
2013-02-07 18:35:00,42.4,36.0,30.00,West,274,2.0,9.0,78,0.00,,,0.00,weatherlink.com 1.10,2013-02-08 02:35:00,
2013-02-07 18:50:00,42.4,36.0,30.00,East,100,2.0,7.0,78,0.00,,,0.00,weatherlink.com 1.10,2013-02-08 02:50:00,
2013-02-07 19:05:00,42.4,36.0,30.00,WNW,282,2.0,10.0,78,0.00,,,0.00,weatherlink.com 1.10,2013-02-08 03:05:00,
2013-02-07 19:20:00,42.1,35.0,30.00,West,260,2.0,12.0,77,0.00,,,0.00,weatherlink.com 1.10,2013-02-08 03:20:00,
2013-02-07 19:35:00,42.0,35.0,30.00,West,263,3.0,11.0,75,0.00,,,0.00,weatherlink.com 1.10,2013-02-08 03:35:00,
2013-02-07 19:50:00,41.8,34.0,30.00,West,261,4.0,6.0,74,0.00,,,0.00,weatherlink.com 1.10,2013-02-08 03:50:00,
2013-02-07 20:05:00,42.0,34.0,30.00,SW,218,1.0,8.0,72,0.00,,,0.00,weatherlink.com 1.10,2013-02-08 04:05:00,
2013-02-07 20:20:00,41.9,33.0,30.00,WNW,284,2.0,6.0,72,0.00,,,0.00,weatherlink.com 1.10,2013-02-08 04:20:00,
2013-02-07 20:35:00,41.4,33.0,30.00,South,188,7.0,7.0,72,0.00,,,0.00,weatherlink.com 1.10,2013-02-08 04:35:00,
2013-02-07 20:50:00,41.0,33.0,30.00,NW,308,2.0,12.0,74,0.00,,,0.00,weatherlink.com 1.10,2013-02-08 04:50:00,
2013-02-07 21:05:00,40.6,34.0,30.00,West,270,2.0,9.0,78,0.00,,,0.00,weatherlink.com 1.10,2013-02-08 05:05:00,
2013-02-07 21:20:00,40.6,34.0,30.00,West,281,2.0,6.0,77,0.00,,,0.00,weatherlink.com 1.10,2013-02-08 05:20:00,
2013-02-07 21:36:00,40.5,34.0,30.00,SSW,205,3.0,8.0,78,0.00,,,0.00,weatherlink.com 1.10,2013-02-08 05:36:00,
2013-02-07 21:50:00,40.3,34.0,29.99,SW,219,3.0,11.0,79,0.00,,,0.00,weatherlink.com 1.10,2013-02-08 05:50:00,
2013-02-07 22:06:00,40.2,35.0,29.99,West,266,2.0,7.0,81,0.00,,,0.00,weatherlink.com 1.10,2013-02-08 06:06:00,
2013-02-07 22:21:00,40.1,35.0,29.98,West,278,2.0,5.0,82,0.00,,,0.00,weatherlink.com 1.10,2013-02-08 06:21:00,
2013-02-07 22:36:00,40.1,35.0,29.98,SE,146,1.0,9.0,82,0.00,,,0.00,weatherlink.com 1.10,2013-02-08 06:36:00,
2013-02-07 22:51:00,40.0,35.0,29.98,WNW,300,3.0,7.0,83,0.00,,,0.00,weatherlink.com 1.10,2013-02-08 06:51:00,
2013-02-07 23:06:00,39.7,35.0,29.98,WNW,284,5.0,12.0,84,0.00,,,0.00,weatherlink.com 1.10,2013-02-08 07:06:00,
2013-02-07 23:21:00,39.6,35.0,29.98,South,170,0.0,8.0,84,0.00,,,0.00,weatherlink.com 1.10,2013-02-08 07:21:00,
2013-02-07 23:36:00,39.5,35.0,29.97,SSE,148,5.0,9.0,84,0.00,,,0.00,weatherlink.com 1.10,2013-02-08 07:36:00,
2013-02-07 23:51:00,39.4,35.0,29.97,WNW,300,3.0,9.0,85,0.00,,,0.00,weatherlink.com 1.10,2013-02-08 07:51:00,